South Lake Tahoe, CA

5:05 AM PDT on August 18, 2017 (GMT -0700)
Lake Tahoe

Weather History for KTVL - April, 2014

Change the Weather History Date:

Wednesday, April 2, 2014

  Actual Average Record
Temperature  
Mean Temperature 33 °F 38 °F  
Max Temperature 44 °F 51 °F 65 °F (1966)
Min Temperature 22 °F 25 °F 10 °F (1963)
Degree Days  
Heating Degree Days 32 27  
Month to date heating degree days 68 54  
Since 1 July heating degree days 5468 6206  
Cooling Degree Days 0 0  
Month to date cooling degree days 0 0  
Year to date cooling degree days 0 0  
Moisture  
Dew Point 23 °F    
Average Humidity 62    
Maximum Humidity 88    
Minimum Humidity 36    
Precipitation  
Precipitation 0.04 in - 1.65 in (1935)
Month to date precipitation 0.05  
Year to date precipitation 10.39  
Sea Level Pressure  
Sea Level Pressure 29.92 in    
Wind  
Wind Speed 3 mph (ESE)    
Max Wind Speed 14 mph    
Max Gust Speed 17 mph    
Visibility 8 miles    
Events Snow    
T = Trace of Precipitation, MM = Missing Value Source: NWS Daily Summary

Daily Weather History Graph

Daily Weather History Graph

Search for Another Location

Airport or City:

Trip Planner

Search our weather history database for the weather conditions in past years. The results will help you decide how hot, cold, wet, or windy it might be!

Date:

Astronomy

Apr. 02, 2014 Rise Set
Actual Time 6:42 AM PDT 7:24 PM PDT
Civil Twilight 6:16 AM PDT 7:51 PM PDT
Nautical Twilight 5:44 AM PDT 8:23 PM PDT
Astronomical Twilight 5:11 AM PDT 8:56 PM PDT
Moon 8:32 AM PDT (4/2) 10:51 PM PDT (4/2)
Length of Visible Light 13h 35m
Length of Day
12h 41m
Waxing Crescent, 11% of the Moon is Illuminated
Apr 2
Waxing Crescent
Apr 7
First Quarter
Apr 15
Full
Apr 22
Last Quarter
Apr 28
New

Hourly Weather History & Observations

Time (PDT) Temp. Windchill Dew Point Humidity Pressure Visibility Wind Dir Wind Speed Gust Speed Precip Events Conditions
12:53 AM 27.0 °F - 19.9 °F 75% 29.78 in 10.0 mi Calm Calm - N/A   Overcast
1:53 AM 28.0 °F 24.2 °F 21.0 °F 75% 29.78 in 10.0 mi South 3.5 mph - N/A   Overcast
2:15 AM 28.0 °F - 21.0 °F 75% 29.78 in 4.0 mi Calm Calm - 0.00 in Snow Light Snow
2:25 AM 28.0 °F 24.2 °F 21.0 °F 75% 29.78 in 4.0 mi SSE 3.5 mph - 0.00 in Snow Light Snow
2:33 AM 28.0 °F 22.8 °F 21.0 °F 75% 29.78 in 8.0 mi South 4.6 mph - 0.00 in   Overcast
2:53 AM 28.0 °F - 21.0 °F 75% 29.78 in 10.0 mi Calm Calm - 0.00 in   Overcast
3:53 AM 25.0 °F - 19.9 °F 81% 29.78 in 10.0 mi Calm Calm - N/A   Partly Cloudy
5:53 AM 24.1 °F 17.0 °F 19.0 °F 81% 29.83 in 10.0 mi South 5.8 mph - N/A   Overcast
6:53 AM 23.0 °F - 17.1 °F 78% 29.86 in 10.0 mi Calm Calm - N/A   Clear
7:53 AM 23.0 °F - 19.0 °F 85% 29.89 in 10.0 mi Calm Calm - N/A   Clear
8:53 AM 28.0 °F - 19.9 °F 72% 29.90 in 10.0 mi Calm Calm - N/A   Clear
9:53 AM 34.0 °F - 18.0 °F 52% 29.91 in 10.0 mi Calm Calm - N/A   Mostly Cloudy
10:53 AM 36.0 °F 30.3 °F 19.0 °F 50% 29.93 in 10.0 mi NE 6.9 mph - N/A   Mostly Cloudy
11:53 AM 37.0 °F 31.0 °F 18.0 °F 46% 29.93 in 10.0 mi NNE 8.1 mph - N/A   Partly Cloudy
12:53 PM 39.0 °F 33.4 °F 19.0 °F 45% 29.93 in 10.0 mi NE 8.1 mph - N/A   Clear
1:53 PM 41.0 °F 34.3 °F 19.9 °F 43% 29.93 in 10.0 mi NNE 11.5 mph - N/A   Clear
3:53 PM 43.0 °F 37.7 °F 19.0 °F 38% 29.94 in 10.0 mi North 9.2 mph - N/A   Mostly Cloudy
4:53 PM 41.0 °F 37.1 °F 21.0 °F 45% 29.97 in 10.0 mi NNE 5.8 mph - N/A   Overcast
5:53 PM 39.0 °F 32.8 °F 26.1 °F 60% 29.98 in 10.0 mi NE 9.2 mph - N/A   Scattered Clouds
6:53 PM 37.9 °F 35.5 °F 23.0 °F 55% 30.00 in 10.0 mi North 3.5 mph - N/A   Partly Cloudy
7:31 PM 36.0 °F 32.1 °F 27.0 °F 70% 30.00 in 2.5 mi Variable 4.6 mph - 0.01 in Snow Light Snow
7:39 PM 35.1 °F 31.0 °F 28.0 °F 76% 30.01 in 1.0 mi NE 4.6 mph - 0.02 in Snow Light Snow
7:53 PM 34.0 °F - 28.9 °F 82% 30.04 in 1.8 mi Calm Calm - 0.04 in Snow Light Snow
7:56 PM 34.0 °F 31.0 °F 28.9 °F 82% 30.01 in 3.0 mi SSW 3.5 mph - 0.00 in Snow Light Snow
8:04 PM 34.0 °F 31.0 °F 28.9 °F 82% 30.01 in 9.0 mi South 3.5 mph - 0.00 in   Mostly Cloudy
8:16 PM 34.0 °F 31.0 °F 28.9 °F 82% 30.02 in 10.0 mi South 3.5 mph - 0.00 in   Scattered Clouds
9:53 PM 32.0 °F 28.7 °F 28.0 °F 85% 30.04 in 10.0 mi SSW 3.5 mph - N/A   Mostly Cloudy
10:20 PM 30.9 °F - 27.0 °F 85% 30.04 in 10.0 mi Calm Calm - N/A   Scattered Clouds
10:53 PM 30.9 °F 26.2 °F 26.1 °F 82% 30.04 in 9.0 mi South 4.6 mph - N/A   Clear
11:53 PM 30.0 °F 25.2 °F 25.0 °F 82% 30.04 in 10.0 mi South 4.6 mph - N/A   Mostly Cloudy